Time,TemperatureF,DewpointF,PressureIn,WindDirection,WindDirectionDegrees,WindSpeedMPH,WindSpeedGustMPH,Humidity,HourlyPrecipIn,Conditions,Clouds,dailyrainin,SoftwareType,DateUTC
2015-04-19 00:00:00,67.8,61.4,29.93,NE,45,0.0,0.0,80,0.06,,SKC,0.00,VWS V14.00,2015-04-18 14:00:00,
2015-04-19 00:20:00,67.8,61.8,29.92,NW,315,0.0,0.0,81,0.06,,SKC,0.02,VWS V14.00,2015-04-18 14:20:00,
2015-04-19 00:40:00,67.2,61.2,29.92,North,0,0.0,0.0,81,0.02,,SKC,0.02,VWS V14.00,2015-04-18 14:40:00,
2015-04-19 01:00:00,67.2,61.2,29.93,NNW,338,0.0,0.0,81,0.04,,SKC,0.04,VWS V14.00,2015-04-18 15:00:00,
2015-04-19 01:20:00,67.1,61.4,29.91,South,180,0.0,0.0,82,0.02,,SKC,0.04,VWS V14.00,2015-04-18 15:20:00,
2015-04-19 01:40:00,66.9,61.2,29.89,South,180,0.0,0.0,82,0.02,,SKC,0.04,VWS V14.00,2015-04-18 15:40:00,
2015-04-19 02:20:00,66.7,61.0,29.90,SSW,202,0.0,0.0,82,0.00,,SKC,0.04,VWS V14.00,2015-04-18 16:20:00,
2015-04-19 02:40:00,66.7,61.4,29.90,SSW,202,0.0,0.0,83,0.00,,SKC,0.04,VWS V14.00,2015-04-18 16:40:00,
2015-04-19 03:00:00,66.7,61.4,29.90,SE,135,0.0,0.0,83,0.00,,SKC,0.04,VWS V14.00,2015-04-18 17:00:00,
2015-04-19 03:20:00,66.5,61.2,29.91,SE,135,0.0,0.0,83,0.00,,SKC,0.04,VWS V14.00,2015-04-18 17:20:00,
2015-04-19 03:40:00,66.3,61.0,29.91,SE,135,0.0,0.0,83,0.00,,SKC,0.04,VWS V14.00,2015-04-18 17:40:00,
2015-04-19 04:01:00,66.0,61.0,29.91,SE,135,0.0,0.0,84,0.00,,SKC,0.04,VWS V14.00,2015-04-18 18:01:00,
2015-04-19 04:20:00,65.8,60.8,29.92,SE,135,0.0,0.0,84,0.00,,SKC,0.04,VWS V14.00,2015-04-18 18:20:00,
2015-04-19 04:40:00,65.6,60.6,29.93,SE,135,0.0,0.0,84,0.00,,SKC,0.04,VWS V14.00,2015-04-18 18:40:00,
2015-04-19 05:01:00,65.3,60.0,29.94,SE,135,0.0,0.0,83,0.00,,SKC,0.04,VWS V14.00,2015-04-18 19:01:00,
2015-04-19 05:20:00,65.4,60.5,29.94,SE,135,0.0,0.0,84,0.00,,SKC,0.04,VWS V14.00,2015-04-18 19:20:00,
2015-04-19 05:40:00,65.4,60.5,29.94,SSW,202,0.0,0.0,84,0.00,,SKC,0.04,VWS V14.00,2015-04-18 19:40:00,
2015-04-19 06:01:00,65.1,60.2,29.95,SSW,202,0.0,0.0,84,0.00,,SKC,0.04,VWS V14.00,2015-04-18 20:01:00,
2015-04-19 06:20:00,64.4,59.5,29.96,SSW,202,0.0,0.0,84,0.00,,SKC,0.04,VWS V14.00,2015-04-18 20:20:00,
2015-04-19 06:40:00,64.0,59.1,29.98,SSW,202,0.0,0.0,84,0.00,,SKC,0.04,VWS V14.00,2015-04-18 20:40:00,
2015-04-19 07:01:00,64.2,59.3,29.99,South,180,0.0,0.0,84,0.00,,SKC,0.04,VWS V14.00,2015-04-18 21:01:00,
2015-04-19 07:20:00,64.0,59.1,30.00,South,180,0.0,0.0,84,0.00,,SKC,0.04,VWS V14.00,2015-04-18 21:20:00,
2015-04-19 07:40:00,64.0,59.1,30.02,SW,225,0.0,0.0,84,0.00,,SKC,0.04,VWS V14.00,2015-04-18 21:40:00,
2015-04-19 08:00:00,64.2,59.3,30.02,WSW,248,0.0,0.0,84,0.00,,SKC,0.04,VWS V14.00,2015-04-18 22:00:00,
2015-04-19 08:20:00,64.5,59.2,30.03,SW,225,0.0,0.0,83,0.00,,SKC,0.04,VWS V14.00,2015-04-18 22:20:00,
2015-04-19 08:40:00,65.1,58.1,30.04,SSW,202,0.0,0.0,78,0.00,,SKC,0.04,VWS V14.00,2015-04-18 22:40:00,
2015-04-19 09:01:00,66.0,57.9,30.05,WSW,248,0.0,0.0,75,0.00,,SKC,0.04,VWS V14.00,2015-04-18 23:01:00,
2015-04-19 09:20:00,66.3,57.0,30.05,West,270,0.0,0.0,72,0.00,,SKC,0.04,VWS V14.00,2015-04-18 23:20:00,
2015-04-19 09:40:00,67.2,57.5,30.05,South,180,0.0,0.0,71,0.00,,SKC,0.04,VWS V14.00,2015-04-18 23:40:00,